METEOR 2-5 DEB, 28555

Orbit data source: Space-Track

METEOR 2-5 DEB, 28555 is space debris in LEO originally from a launch on Wed, 31 Oct 1979 UTC launched from the Plesetsk Missile And Space Complex (PKMTR). Debris objects in space refer to the collection of defunct objects orbiting the Earth. Examples of debris include non-operational satellites, rocket bodies, and fragments generated from explosions, collisions, or faulty payload assembly.

Loading next visibility...
Identifier
28555, 1979-095D
Orbit
LEO
Country
Flag of CISCIS
Related business
Manufacturer
Unknown
Mission
Spacecraft
Bus & Motor
Unknown
Mass
Unknown
Launch date (UTC)
1979-10-31 (47 years ago)
Launch vehicle
Unknown
Launch site
Plesetsk Missile And Space Complex (PKMTR)
Object type
Payload
Rocket body
Debris
Shape & HBR
Unknown shape, 0.1 m
Radar Cross Section
Small (<0.1 m²)

Expand to show TLE details & history
Last TLE update: 2 weeks ago

TLE from 2 weeks ago
0 METEOR 2-5 DEB
1 28555U 79095D   26161.94186480  .00205958  00000-0  67282-2 0  9997
2 28555  81.1447 245.9708 0007615 279.0616  80.9758 15.30848760246895
Epoch: 2026-06-10T22:36Z
TLE epoch observation values (Epoch: 2026-06-10T22:36:17.118Z)
Latitude
-0.0001°
Longitude
7.60667°
Altitude
475.523 km
Speed
7.629 km/s
True Right ascension
16h 23m 52s
True Declination
0° 00' 00"
Sunlit
Object was in full shadow at epoch
Visualization orbit readout
Latitude
Unknown
Longitude
Unknown
Altitude
Unknown
Speed
Unknown
Apparent Right ascension
Unknown
Apparent Declination
Unknown
Sunlit
N/A
Visualization observer readout
Local Sidereal Time
11:35:04
Azimuth
Unknown
Elevation
Unknown
Doppler factor
Unknown
Orbital elements
Apogee altitude
475.513 km
Perigee altitude
465.083 km
Semi-major axis
6,848.435 km
Eccentricity
0.00076
Inclination
81.1447°
RAAN
245.9708°
Arg. of periapsis
279.0616°
True anomaly
81.06199°
Mean anomaly
80.9758°
Eccentric anomaly
81.0189°
Mean motion
3.82962 °/min
Orbital period
94 mins
BSTAR
0.0067282
Loading maneuver chart data...
Computing Atmospheric mass density...

Documentation

Showing up to 5 results
|